Location: Mount Cross
(36.6390°N, 79.4878°W)
Time: 10:28:59
(UTC+00:00)

SR - All Passes

Search period start: 29 March 2023 00:00
Search period end: 08 April 2023 00:00
Orbit: 583 x 866 km, 66.7° (Epoch: 28 March)

Date Brightness Start Highest point End Pass type
(mag) Time Alt. Az. Time Alt. Az. Time Alt. Az.
29 Mar - 06:18:05 10° SSW 06:22:50 84° WNW 06:27:17 10° NNE visible
29 Mar - 15:00:37 10° N 15:04:36 34° ENE 15:08:45 10° ESE daylight
29 Mar - 16:43:03 10° WNW 16:46:18 20° WSW 16:49:42 10° SSW daylight
30 Mar - 05:27:47 10° S 05:32:13 40° ESE 05:36:23 10° NE night (unlit)
30 Mar - 07:10:56 10° W 07:14:15 19° NW 07:17:27 10° N visible
30 Mar - 14:10:54 10° NNE 14:13:39 16° NE 14:16:28 10° E daylight
30 Mar - 15:51:33 10° NW 15:55:47 48° WSW 16:00:16 10° S daylight
31 Mar - 04:38:39 10° SSE 04:41:43 17° ESE 04:44:40 10° ENE night (unlit)
31 Mar - 06:18:57 10° SW 06:23:22 41° WNW 06:27:32 10° NNE visible
31 Mar - 15:00:47 10° NNW 15:05:08 69° ENE 15:09:45 10° SE daylight
01 Apr - 05:27:55 10° SSW 05:32:38 84° ESE 05:37:03 10° NNE night (unlit)
01 Apr - 07:14:13 10° WNW 07:15:04 10° NW 07:15:54 10° NW visible
01 Apr - 14:10:30 10° N 14:14:21 30° ENE 14:18:22 10° ESE daylight
01 Apr - 15:52:35 10° WNW 15:56:08 24° WSW 15:59:51 10° SSW daylight
02 Apr - 04:37:46 10° S 04:42:02 34° ESE 04:46:03 10° NE night (unlit)
02 Apr - 06:20:25 10° WSW 06:23:59 22° NW 06:27:25 10° N visible
02 Apr - 13:20:58 10° NNE 13:23:22 14° NE 13:25:49 10° E daylight
02 Apr - 15:01:16 10° NW 15:05:34 57° WSW 15:10:10 10° SSE daylight
03 Apr - 03:48:59 10° SE 03:51:32 15° ESE 03:54:01 10° ENE night (unlit)
03 Apr - 05:28:37 10° SW 05:33:07 48° WNW 05:37:21 10° NNE night (unlit)
03 Apr - 14:10:34 10° NNW 14:14:54 59° ENE 14:19:29 10° SE daylight
03 Apr - 15:54:51 10° W 15:56:23 12° WSW 15:57:56 10° SW daylight
04 Apr - 04:37:44 10° SSW 04:42:24 71° ESE 04:46:47 10° NNE night (unlit)
04 Apr - 06:23:01 10° WNW 06:24:44 12° NW 06:26:25 10° NNW visible
04 Apr - 13:20:22 10° N 13:24:04 26° NE 13:27:55 10° ESE daylight
04 Apr - 15:02:09 10° NW 15:05:55 28° WSW 15:09:54 10° SSW daylight
05 Apr - 03:47:46 10° S 03:51:48 29° ESE 03:55:38 10° NE night (unlit)
05 Apr - 05:29:55 10° WSW 05:33:41 25° NW 05:37:18 10° N visible
05 Apr - 12:31:05 10° NNE 12:33:02 13° NE 12:35:01 10° ENE daylight
05 Apr - 14:10:57 10° NNW 14:15:20 67° WSW 14:20:00 10° SSE daylight
06 Apr - 02:59:28 10° SE 03:01:20 12° ESE 03:03:10 10° E night (unlit)
06 Apr - 04:38:17 10° SW 04:42:50 55° WNW 04:47:08 10° NNE night (unlit)
06 Apr - 13:20:20 10° NNW 13:24:37 51° ENE 13:29:10 10° SE daylight
06 Apr - 15:03:53 10° WNW 15:06:10 14° WSW 15:08:32 10° SW daylight
07 Apr - 03:47:33 10° SSW 03:52:08 60° ESE 03:56:28 10° NE night (unlit)
07 Apr - 05:32:08 10° W 05:34:23 14° NW 05:36:36 10° NNW visible
07 Apr - 12:30:13 10° N 12:33:45 23° NE 12:37:25 10° ESE daylight
07 Apr - 14:11:42 10° NW 14:15:40 32° WSW 14:19:53 10° S daylight
